Miscellaneous Local Product
Issued by NWS Hastings, NE

Home | Current Version | Previous Version | Text Only | Print | Product List | Glossary Off
Versions: 1 2 3 4 5 6 7 8 9 10 11 12 13 14 15 16 17 18 19 20 21 22 23 24 25 26 27 28 29 30 31 32 33 34 35 36 37 38 39 40 41 42 43 44 45 46 47 48 49 50

000
AXUS43 KGID 252202
MISGRI

GID CWA HOURLY WEATHER ROUNDUP
NATIONAL WEATHER SERVICE HASTINGS NE
500 PM CDT WED APR 25 2018

NOTE: "FAIR" INDICATES FEW OR NO CLOUDS BELOW 12,000 FEET WITH NO
SIGNIFICANT WEATHER AND/OR OBSTRUCTIONS TO VISIBILITY.

...SOUTH CENTRAL NEBRASKA...

CITY           SKY/WX    TMP DP  RH WIND       PRES   REMARKS
GRAND ISLAND   SUNNY     59  32  36 N5        30.12F
KEARNEY        SUNNY     57  29  34 NW10      30.12F
HASTINGS       SUNNY     57  33  40 N8        30.13F
ORD            SUNNY     59  26  28 E3        30.09F
YORK             N/A     55  36  47 CALM      30.12F
AURORA         SUNNY     56  31  38 CALM      30.11F
LEXINGTON      SUNNY     59  32  35 N5        30.11F
HOLDREGE       SUNNY     57  34  42 W7        30.12F
HEBRON         CLOUDY    54  39  55 N5        30.13F

...NEBRASKA PANHANDLE...

CITY           SKY/WX    TMP DP  RH WIND       PRES   REMARKS
CHADRON        SUNNY     70  19  14 SW16G25   29.98F
ALLIANCE       SUNNY     65  21  18 SW10G20   30.03F
SCOTTSBLUFF    SUNNY     68  23  18 S9        30.03F
SIDNEY         SUNNY     65  25  22 SW10      30.08F

...WESTERN AND NORTH CENTRAL NEBRASKA...

CITY           SKY/WX    TMP DP  RH WIND       PRES   REMARKS
VALENTINE      SUNNY     65  22  19 SW10G21   30.03F
AINSWORTH      SUNNY     62  25  24 S10       30.05F
ONEILL         SUNNY     61  28  28 S6        30.10F
BROKEN BOW     SUNNY     59  33  37 S3        30.10F
IMPERIAL       SUNNY     62  31  31 W9        30.12F
NORTH PLATTE   SUNNY     63  28  26 CALM      30.11F
MCCOOK         SUNNY     62  33  33 N8        30.12F

...EASTERN NEBRASKA...

CITY           SKY/WX    TMP DP  RH WIND       PRES   REMARKS
NORFOLK        SUNNY     59  30  33 NW7       30.09F
SO SIOUX CITY  SUNNY     61  31  32 CALM      30.08F
TEKAMAH        SUNNY     62  32  32 MISG      30.08F
COLUMBUS       SUNNY     60  34  37 NW7       30.10F
ALBION         SUNNY     59  28  31 NW3       30.10F
OMAHA EPPLEY   MOSUNNY   64  32  30 NW5       30.08F
MILLARD        SUNNY     60  34  38 NW7       30.09F
LINCOLN        SUNNY     59  34  39 N7        30.13F
NEBRASKA CITY  CLOUDY    53  42  68 NW7       30.11F
BEATRICE       PTSUNNY   54  40  59 N7        30.12F
FALLS CITY     MOSUNNY   54  40  59 N8        30.10F

...NORTHERN KANSAS...

CITY           SKY/WX    TMP DP  RH WIND       PRES   REMARKS
GOODLAND       SUNNY     59  32  36 N10       30.14F
HILL CITY      SUNNY     60  36  40 N12G20    30.14F
NORTON         CLEAR     61  34  36 NW7       30.12F
PHILLIPSBURG   SUNNY     61  32  33 NW8       30.14F
SMITH CENTER   SUNNY     55  36  47 N8        30.15F
BELOIT         PTSUNNY   52  37  58 N10G17    30.14F
HAYS           MOSUNNY   58  34  40 N15       30.13F
RUSSELL        CLOUDY    54  40  59 N9        30.13F
CONCORDIA      CLOUDY    50  40  68 N12       30.13F
SALINA         CLOUDY    50  45  83 N10       30.13F
TOPEKA         LGT RAIN  50  49  96 N9        30.08F



USA.gov is the U.S. government's official web portal to all federal, state and local government web resources and services.